Flag for Canada Weather past 2 weeks in Kitchener, Ontario, Canada

Now
57 °F

Clear.


Feels Like: 57 °F
Forecast: 57 / 74 °F
Wind: 3 mph from West

Location: Waterloo Well

Current Time: Aug 1, 2015 at 6:06:23 AM

Latest Report: Aug 1, 2015 at 5:00 AM


Visibility: 9 mi

Pressure: 29.83 "Hg

Humidity: 94%

Dew point: 55 °F

Location of KitchenerLocation

Historic Weather in Kitchener — Graph

°F

Kitchener temperature yesterday

Maximum temperature yesterday: 84 °F (at 4:00 PM)
Minimum temperature yesterday: 52 °F (at 6:00 AM)
Average temperature yesterday: 70 °F

Past Weeks' High & Low Weather Summary

 TemperatureHumidityPressure
High90 °F (Jul 29, 3:00 PM)100% (Jul 18, 2:00 AM)30.06 "Hg (Jul 18, 2:00 AM)
Low46 °F (Jul 24, 5:00 AM)31% (Jul 29, 3:00 PM)29.64 "Hg (Jul 21, 2:00 AM)
Average71 °F72%29.89 "Hg
* Reported Jul 17 5:00 AM — Aug 1 5:00 AM, Kitchener, Weather by CustomWeather, © 2015

Note: Actual official high and low records may vary slightly from our data, if they occured in-between our weather recording intervals... More about our weather records

Advertising

Kitchener weather history for previous 24 hours

 ConditionsComfort  
Time TempWeatherWind HumidityBarometerVisibility
5:00 AM
Sat, Aug 1
57 °FClear.3 mph94%29.83 "Hg9 mi
4:00 AM57 °FClear.5 mph94%29.83 "Hg9 mi
3:00 AM61 °FClear.6 mph88%29.83 "Hg9 mi
2:00 AM61 °FClear.7 mph94%29.82 "Hg9 mi
1:00 AM61 °FClear.7 mph94%29.83 "Hg9 mi
12:00 AM63 °FPassing clouds.7 mph88%29.82 "Hg9 mi
11:00 PM
Fri, Jul 31
63 °FPassing clouds.5 mph94%29.81 "Hg9 mi
10:00 PM64 °FLight rain. Mostly cloudy.7 mph88%29.81 "Hg9 mi
9:00 PM70 °FPartly sunny.6 mph69%29.79 "Hg9 mi
8:00 PM75 °FThundershowers. Cloudy.10 mph54%29.79 "Hg9 mi
7:00 PM79 °FPassing clouds.16 mph42%29.77 "Hg9 mi
6:00 PM81 °FOvercast.17 mph42%29.78 "Hg9 mi
5:00 PM81 °FPartly sunny.20 mph39%29.78 "Hg9 mi
4:00 PM84 °FBroken clouds.22 mph37%29.80 "Hg9 mi
3:00 PM79 °FBroken clouds.17 mph42%29.82 "Hg9 mi
2:00 PM82 °FBroken clouds.18 mph40%29.83 "Hg9 mi
1:00 PM82 °FScattered clouds.20 mph40%29.85 "Hg9 mi
12:00 PM81 °FPassing clouds.13 mph45%29.86 "Hg9 mi
11:46 AM81 °FPassing clouds.16 mph45%29.86 "Hg9 mi
11:00 AM81 °FSunny.12 mph45%29.87 "Hg9 mi
10:00 AM77 °FSunny.10 mph51%29.87 "Hg9 mi
9:00 AM72 °FSunny.9 mph65%29.88 "Hg9 mi
8:00 AM64 °FSunny.No wind83%29.90 "Hg9 mi
7:00 AM55 °FClear.2 mph94%29.90 "Hg9 mi
6:00 AM52 °FFog.2 mph100%29.90 "Hg5 mi
Weather by CustomWeather, © 2015

See weather overviewHow to use our weather pages